Time,TemperatureF,DewpointF,PressureIn,WindDirection,WindDirectionDegrees,WindSpeedMPH,WindSpeedGustMPH,Humidity,HourlyPrecipIn,Conditions,Clouds,dailyrainin,SoftwareType,DateUTC
2013-02-26 00:01:00,31.0,30.0,30.40,SW,230,0.0,0.0,96,0.00,,,0.04,,2013-02-26 05:01:00,
2013-02-26 00:12:00,31.0,30.0,30.40,SW,230,0.0,0.0,96,0.00,,,0.04,,2013-02-26 05:12:00,
2013-02-26 00:22:00,30.0,29.0,30.40,SW,231,0.0,0.0,96,0.00,,,0.04,,2013-02-26 05:22:00,
2013-02-26 00:32:00,30.0,29.0,30.41,SW,231,0.0,0.0,96,0.00,,,0.04,,2013-02-26 05:32:00,
2013-02-26 00:43:00,30.0,29.0,30.41,SW,231,0.0,0.0,96,0.00,,,0.04,,2013-02-26 05:43:00,
2013-02-26 00:52:00,30.0,29.0,30.41,SW,230,0.0,0.0,96,0.00,,,0.04,,2013-02-26 05:52:00,
2013-02-26 01:02:00,30.0,29.0,30.41,SW,231,0.0,0.0,96,0.00,,,0.04,,2013-02-26 06:02:00,
2013-02-26 01:11:00,30.0,29.0,30.41,SW,231,0.0,0.0,96,0.00,,,0.04,,2013-02-26 06:11:00,
2013-02-26 01:22:00,30.0,29.0,30.41,SW,231,0.0,0.0,96,0.00,,,0.04,,2013-02-26 06:22:00,
2013-02-26 01:32:00,30.0,29.0,30.42,SW,231,0.0,0.0,96,0.00,,,0.03,,2013-02-26 06:32:00,
2013-02-26 01:42:00,30.0,29.0,30.42,SW,231,0.0,0.0,96,0.00,,,0.03,,2013-02-26 06:42:00,
2013-02-26 01:52:00,30.0,29.0,30.41,SW,231,0.0,0.0,96,0.00,,,0.03,,2013-02-26 06:52:00,
2013-02-26 02:01:00,30.0,29.0,30.41,SW,231,0.0,0.0,96,0.00,,,0.03,,2013-02-26 07:01:00,
2013-02-26 02:11:00,30.0,29.0,30.41,SW,231,0.0,0.0,96,0.00,,,0.03,,2013-02-26 07:11:00,
2013-02-26 02:22:00,30.0,29.0,30.41,SW,231,0.0,0.0,96,0.00,,,0.03,,2013-02-26 07:22:00,
2013-02-26 02:32:00,30.0,29.0,30.40,SW,231,0.0,0.0,96,0.00,,,0.03,,2013-02-26 07:32:00,
2013-02-26 02:42:00,30.0,29.0,30.40,SW,231,0.0,0.0,96,0.00,,,0.03,,2013-02-26 07:42:00,
2013-02-26 02:51:00,30.0,29.0,30.41,SW,231,0.0,0.0,96,0.00,,,0.03,,2013-02-26 07:51:00,
2013-02-26 03:02:00,30.0,29.0,30.43,SW,231,0.0,0.0,96,0.00,,,0.03,,2013-02-26 08:02:00,
2013-02-26 03:11:00,30.0,29.0,30.43,SW,231,0.0,0.0,96,0.00,,,0.03,,2013-02-26 08:11:00,
2013-02-26 03:21:00,30.0,29.0,30.43,SW,231,0.0,0.0,96,0.00,,,0.03,,2013-02-26 08:21:00,
2013-02-26 03:32:00,30.0,29.0,30.44,SW,231,0.0,0.0,96,0.00,,,0.03,,2013-02-26 08:32:00,
2013-02-26 03:42:00,30.0,29.0,30.44,SW,231,0.0,0.0,96,0.00,,,0.03,,2013-02-26 08:42:00,
2013-02-26 03:52:00,30.0,29.0,30.44,SW,231,0.0,0.0,96,0.00,,,0.03,,2013-02-26 08:52:00,
2013-02-26 04:02:00,30.0,29.0,30.43,SW,231,0.0,0.0,96,0.00,,,0.03,,2013-02-26 09:02:00,
2013-02-26 04:11:00,30.0,29.0,30.43,SW,231,0.0,0.0,96,0.00,,,0.03,,2013-02-26 09:11:00,
2013-02-26 04:21:00,30.0,29.0,30.44,SW,231,0.0,0.0,96,0.00,,,0.03,,2013-02-26 09:21:00,
2013-02-26 04:32:00,30.0,29.0,30.45,SW,230,0.0,0.0,96,0.00,,,0.03,,2013-02-26 09:32:00,
2013-02-26 04:43:00,30.0,29.0,30.45,SW,230,0.0,0.0,96,0.00,,,0.03,,2013-02-26 09:43:00,
2013-02-26 04:51:00,30.0,29.0,30.45,SW,231,0.0,0.0,96,0.00,,,0.03,,2013-02-26 09:51:00,
2013-02-26 05:01:00,30.0,29.0,30.44,SW,230,0.0,0.0,96,0.00,,,0.03,,2013-02-26 10:01:00,
2013-02-26 05:11:00,30.0,29.0,30.44,SW,230,0.0,0.0,96,0.00,,,0.03,,2013-02-26 10:11:00,
2013-02-26 05:21:00,30.0,29.0,30.44,SW,231,0.0,0.0,96,0.00,,,0.03,,2013-02-26 10:21:00,
2013-02-26 05:32:00,29.0,28.0,30.45,SW,231,0.0,0.0,96,0.00,,,0.03,,2013-02-26 10:32:00,
2013-02-26 05:42:00,29.0,28.0,30.45,SW,231,0.0,0.0,96,0.00,,,0.03,,2013-02-26 10:42:00,
2013-02-26 05:52:00,29.0,28.0,30.45,SW,231,0.0,0.0,96,0.00,,,0.03,,2013-02-26 10:52:00,
2013-02-26 06:01:00,29.0,28.0,30.46,SW,230,0.0,0.0,96,0.00,,,0.03,,2013-02-26 11:01:00,
2013-02-26 06:12:00,29.0,28.0,30.46,SW,230,0.0,0.0,96,0.00,,,0.03,,2013-02-26 11:12:00,
2013-02-26 06:22:00,29.0,28.0,30.46,SW,231,0.0,0.0,96,0.00,,,0.03,,2013-02-26 11:22:00,
2013-02-26 06:32:00,28.0,27.0,30.46,SW,231,0.0,0.0,96,0.00,,,0.03,,2013-02-26 11:32:00,
2013-02-26 06:42:00,28.0,27.0,30.46,SW,231,0.0,0.0,96,0.00,,,0.03,,2013-02-26 11:42:00,
2013-02-26 06:52:00,28.0,27.0,30.46,SW,231,0.0,0.0,96,0.00,,,0.03,,2013-02-26 11:52:00,
2013-02-26 07:02:00,27.0,26.0,30.46,SW,231,0.0,0.0,96,0.00,,,0.03,,2013-02-26 12:02:00,
2013-02-26 07:11:00,27.0,26.0,30.46,SW,231,0.0,0.0,96,0.00,,,0.03,,2013-02-26 12:11:00,
2013-02-26 07:22:00,27.0,26.0,30.47,SW,231,0.0,0.0,96,0.00,,,0.03,,2013-02-26 12:22:00,
2013-02-26 07:32:00,27.0,26.0,30.47,SW,231,0.0,0.0,96,0.00,,,0.03,,2013-02-26 12:32:00,
2013-02-26 07:42:00,27.0,26.0,30.47,SW,231,0.0,0.0,96,0.00,,,0.03,,2013-02-26 12:42:00,
2013-02-26 07:52:00,27.0,26.0,30.48,SSW,200,0.0,0.0,96,0.00,,,0.03,,2013-02-26 12:52:00,
2013-02-26 08:02:00,28.0,27.0,30.48,SSW,200,0.0,0.0,96,0.00,,,0.03,,2013-02-26 13:02:00,
2013-02-26 08:11:00,28.0,27.0,30.48,SSW,200,0.0,0.0,96,0.00,,,0.03,,2013-02-26 13:11:00,
2013-02-26 08:22:00,29.0,28.0,30.49,SSW,200,0.0,0.0,96,0.00,,,0.03,,2013-02-26 13:22:00,
2013-02-26 08:32:00,31.0,30.0,30.49,SSW,200,0.0,0.0,96,0.00,,,0.03,,2013-02-26 13:32:00,
2013-02-26 08:42:00,31.0,30.0,30.49,SSW,200,0.0,0.0,96,0.00,,,0.03,,2013-02-26 13:42:00,
2013-02-26 08:52:00,33.0,32.0,30.48,SSW,200,0.0,0.0,95,0.00,,,0.03,,2013-02-26 13:52:00,
2013-02-26 09:02:00,34.0,32.0,30.48,SSW,210,0.0,0.0,91,0.00,,,0.03,,2013-02-26 14:02:00,
2013-02-26 09:11:00,34.0,32.0,30.48,SSW,210,0.0,0.0,91,0.00,,,0.03,,2013-02-26 14:11:00,
2013-02-26 09:22:00,34.0,32.0,30.49,WSW,253,0.0,1.0,91,0.00,,,0.03,,2013-02-26 14:22:00,
2013-02-26 09:32:00,34.0,31.0,30.49,WSW,256,1.0,2.0,90,0.01,,,0.04,,2013-02-26 14:32:00,
2013-02-26 09:42:00,34.0,31.0,30.49,WSW,256,1.0,2.0,90,0.01,,,0.04,,2013-02-26 14:42:00,
2013-02-26 09:52:00,35.0,32.0,30.49,West,266,1.0,2.0,90,0.01,,,0.04,,2013-02-26 14:52:00,
2013-02-26 10:02:00,35.0,32.0,30.49,West,278,1.0,2.0,90,0.01,,,0.04,,2013-02-26 15:02:00,
2013-02-26 10:11:00,35.0,32.0,30.49,West,278,1.0,2.0,90,0.01,,,0.04,,2013-02-26 15:11:00,
2013-02-26 10:22:00,35.0,32.0,30.47,West,277,1.0,4.0,90,0.01,,,0.04,,2013-02-26 15:22:00,
2013-02-26 10:32:00,37.0,34.0,30.47,NW,304,0.0,2.0,90,0.00,,,0.04,,2013-02-26 15:32:00,
2013-02-26 10:42:00,37.0,34.0,30.47,NW,304,0.0,2.0,90,0.00,,,0.04,,2013-02-26 15:42:00,
2013-02-26 10:52:00,39.0,33.0,30.47,ENE,73,0.0,3.0,79,0.00,,,0.04,,2013-02-26 15:52:00,
2013-02-26 11:02:00,40.0,33.0,30.47,SE,136,2.0,4.0,75,0.00,,,0.04,,2013-02-26 16:02:00,
2013-02-26 11:11:00,40.0,33.0,30.47,SE,136,2.0,4.0,75,0.00,,,0.04,,2013-02-26 16:11:00,
2013-02-26 11:22:00,39.0,31.0,30.48,ENE,67,2.0,3.0,74,0.00,,,0.04,,2013-02-26 16:22:00,
2013-02-26 11:32:00,39.0,30.0,30.48,SE,135,2.0,4.0,71,0.02,,,0.06,,2013-02-26 16:32:00,
2013-02-26 11:42:00,39.0,30.0,30.48,SE,135,2.0,4.0,71,0.02,,,0.06,,2013-02-26 16:42:00,
2013-02-26 11:52:00,39.0,31.0,30.48,East,83,1.0,4.0,72,0.03,,,0.07,,2013-02-26 16:52:00,
2013-02-26 12:01:00,39.0,31.0,30.47,East,80,1.0,3.0,72,0.03,,,0.07,,2013-02-26 17:01:00,
2013-02-26 12:11:00,39.0,31.0,30.47,East,80,1.0,3.0,72,0.03,,,0.07,,2013-02-26 17:11:00,
2013-02-26 12:22:00,39.0,30.0,30.46,East,81,0.0,2.0,71,0.03,,,0.07,,2013-02-26 17:22:00,
2013-02-26 12:32:00,39.0,29.0,30.46,WSW,244,1.0,4.0,68,0.01,,,0.07,,2013-02-26 17:32:00,
2013-02-26 12:42:00,39.0,29.0,30.46,WSW,244,1.0,4.0,68,0.01,,,0.07,,2013-02-26 17:42:00,
2013-02-26 12:52:00,39.0,30.0,30.47,SW,235,2.0,5.0,69,0.00,,,0.07,,2013-02-26 17:52:00,
2013-02-26 13:02:00,39.0,30.0,30.47,NNE,20,0.0,4.0,71,0.00,,,0.07,,2013-02-26 18:02:00,
2013-02-26 13:12:00,39.0,30.0,30.47,NNE,20,0.0,4.0,71,0.00,,,0.07,,2013-02-26 18:12:00,
2013-02-26 13:21:00,38.0,29.0,30.47,ESE,114,0.0,3.0,71,0.00,,,0.07,,2013-02-26 18:21:00,
2013-02-26 13:32:00,39.0,31.0,30.46,ENE,61,0.0,3.0,72,0.00,,,0.07,,2013-02-26 18:32:00,
2013-02-26 13:42:00,39.0,31.0,30.46,ENE,61,0.0,3.0,72,0.00,,,0.07,,2013-02-26 18:42:00,
2013-02-26 13:52:00,39.0,30.0,30.46,ENE,64,1.0,3.0,70,0.00,,,0.07,,2013-02-26 18:52:00,
2013-02-26 14:02:00,39.0,30.0,30.46,SE,145,1.0,3.0,69,0.00,,,0.07,,2013-02-26 19:02:00,
2013-02-26 14:11:00,39.0,30.0,30.46,SE,145,1.0,3.0,69,0.00,,,0.07,,2013-02-26 19:11:00,
2013-02-26 14:22:00,39.0,30.0,30.45,WSW,256,1.0,4.0,70,0.01,,,0.08,,2013-02-26 19:22:00,
2013-02-26 14:32:00,39.0,31.0,30.44,NE,40,1.0,3.0,72,0.01,,,0.07,,2013-02-26 19:32:00,
2013-02-26 14:42:00,39.0,31.0,30.44,NE,40,1.0,3.0,72,0.01,,,0.07,,2013-02-26 19:42:00,
2013-02-26 14:52:00,39.0,30.0,30.44,ENE,74,1.0,4.0,70,0.02,,,0.08,,2013-02-26 19:52:00,
2013-02-26 15:01:00,38.0,29.0,30.43,East,86,1.0,3.0,71,0.02,,,0.08,,2013-02-26 20:01:00,
2013-02-26 15:11:00,38.0,29.0,30.43,East,86,1.0,3.0,71,0.02,,,0.08,,2013-02-26 20:11:00,
2013-02-26 15:22:00,38.0,30.0,30.42,ENE,66,1.0,5.0,72,0.02,,,0.09,,2013-02-26 20:22:00,
2013-02-26 15:32:00,38.0,30.0,30.42,ESE,107,0.0,5.0,74,0.02,,,0.08,,2013-02-26 20:32:00,
2013-02-26 15:41:00,38.0,30.0,30.42,ESE,107,0.0,5.0,74,0.02,,,0.08,,2013-02-26 20:41:00,
2013-02-26 15:52:00,38.0,30.0,30.42,East,91,0.0,2.0,74,0.01,,,0.08,,2013-02-26 20:52:00,
2013-02-26 16:01:00,38.0,30.0,30.42,ENE,70,1.0,4.0,74,0.01,,,0.08,,2013-02-26 21:01:00,
2013-02-26 16:11:00,38.0,30.0,30.42,ENE,70,1.0,4.0,74,0.01,,,0.08,,2013-02-26 21:11:00,
2013-02-26 16:21:00,37.0,29.0,30.42,SSW,209,1.0,4.0,74,0.01,,,0.09,,2013-02-26 21:21:00,
2013-02-26 16:31:00,37.0,29.0,30.42,ENE,68,1.0,5.0,74,0.01,,,0.09,,2013-02-26 21:31:00,
2013-02-26 16:41:00,37.0,29.0,30.42,ENE,68,1.0,5.0,74,0.01,,,0.09,,2013-02-26 21:41:00,
2013-02-26 16:51:00,37.0,30.0,30.42,ENE,60,0.0,1.0,76,0.01,,,0.09,,2013-02-26 21:51:00,
2013-02-26 17:01:00,37.0,30.0,30.41,SE,125,0.0,5.0,76,0.01,,,0.09,,2013-02-26 22:01:00,
2013-02-26 17:11:00,37.0,30.0,30.41,SE,125,0.0,5.0,76,0.01,,,0.09,,2013-02-26 22:11:00,
2013-02-26 17:21:00,37.0,30.0,30.41,ENE,59,1.0,4.0,76,0.00,,,0.09,,2013-02-26 22:21:00,
2013-02-26 17:32:00,37.0,30.0,30.41,NE,50,1.0,5.0,76,0.00,,,0.08,,2013-02-26 22:32:00,
2013-02-26 17:42:00,37.0,30.0,30.41,NE,50,1.0,5.0,76,0.00,,,0.08,,2013-02-26 22:42:00,
2013-02-26 17:51:00,36.0,30.0,30.41,NE,38,1.0,3.0,78,0.00,,,0.08,,2013-02-26 22:51:00,
2013-02-26 18:01:00,36.0,29.0,30.41,East,80,0.0,3.0,76,0.01,,,0.09,,2013-02-26 23:01:00,
2013-02-26 18:11:00,36.0,29.0,30.41,East,80,0.0,3.0,76,0.01,,,0.09,,2013-02-26 23:11:00,
2013-02-26 18:21:00,36.0,30.0,30.41,ENE,64,1.0,2.0,78,0.01,,,0.09,,2013-02-26 23:21:00,
2013-02-26 18:32:00,36.0,29.0,30.41,ENE,74,1.0,5.0,77,0.01,,,0.09,,2013-02-26 23:32:00,
2013-02-26 18:42:00,36.0,29.0,30.41,ENE,74,1.0,5.0,77,0.01,,,0.09,,2013-02-26 23:42:00,
2013-02-26 18:52:00,36.0,29.0,30.41,ENE,69,1.0,3.0,75,0.01,,,0.09,,2013-02-26 23:52:00,
2013-02-26 19:02:00,36.0,29.0,30.41,ENE,77,1.0,3.0,75,0.00,,,0.09,,2013-02-27 00:02:00,
2013-02-26 19:11:00,36.0,29.0,30.41,ENE,77,1.0,3.0,75,0.00,,,0.09,,2013-02-27 00:11:00,
2013-02-26 19:22:00,35.0,28.0,30.40,ENE,58,1.0,3.0,74,0.00,,,0.09,,2013-02-27 00:22:00,
2013-02-26 19:32:00,35.0,28.0,30.40,ENE,66,1.0,3.0,75,0.00,,,0.09,,2013-02-27 00:32:00,
2013-02-26 19:42:00,35.0,28.0,30.40,ENE,66,1.0,3.0,75,0.00,,,0.09,,2013-02-27 00:42:00,
2013-02-26 19:51:00,35.0,28.0,30.41,ENE,68,1.0,4.0,76,0.00,,,0.09,,2013-02-27 00:51:00,
2013-02-26 20:01:00,35.0,28.0,30.41,ENE,68,1.0,4.0,76,0.00,,,0.09,,2013-02-27 01:01:00,
2013-02-26 20:11:00,35.0,28.0,30.41,ENE,68,1.0,4.0,76,0.00,,,0.09,,2013-02-27 01:11:00,
2013-02-26 20:22:00,34.0,27.0,30.41,ENE,69,1.0,3.0,74,0.00,,,0.09,,2013-02-27 01:22:00,
2013-02-26 20:32:00,34.0,26.0,30.42,East,79,0.0,2.0,73,0.00,,,0.09,,2013-02-27 01:32:00,
2013-02-26 20:42:00,34.0,26.0,30.42,East,79,0.0,2.0,73,0.00,,,0.09,,2013-02-27 01:42:00,
2013-02-26 20:52:00,34.0,27.0,30.41,ENE,58,1.0,2.0,74,0.00,,,0.09,,2013-02-27 01:52:00,
2013-02-26 21:02:00,34.0,27.0,30.39,ENE,76,1.0,4.0,74,0.00,,,0.09,,2013-02-27 02:02:00,
2013-02-26 21:16:00,34.0,27.0,30.39,ENE,76,1.0,4.0,74,0.00,,,0.09,,2013-02-27 02:16:00,
2013-02-26 21:24:00,34.0,27.0,30.38,East,79,2.0,3.0,74,0.00,,,0.09,,2013-02-27 02:24:00,
2013-02-26 21:32:00,34.0,27.0,30.37,ENE,63,3.0,6.0,76,0.00,,,0.09,,2013-02-27 02:32:00,
2013-02-26 21:42:00,34.0,27.0,30.37,ENE,63,3.0,6.0,76,0.00,,,0.09,,2013-02-27 02:42:00,
2013-02-26 21:52:00,33.0,27.0,30.38,ESE,119,1.0,7.0,77,0.00,,,0.09,,2013-02-27 02:52:00,
2013-02-26 22:02:00,33.0,27.0,30.37,East,84,1.0,5.0,77,0.00,,,0.09,,2013-02-27 03:02:00,
2013-02-26 22:11:00,33.0,27.0,30.37,East,84,1.0,5.0,77,0.00,,,0.09,,2013-02-27 03:11:00,
2013-02-26 22:22:00,33.0,27.0,30.36,East,84,2.0,3.0,78,0.00,,,0.09,,2013-02-27 03:22:00,
2013-02-26 22:32:00,33.0,27.0,30.35,ENE,69,0.0,3.0,79,0.00,,,0.09,,2013-02-27 03:32:00,
2013-02-26 22:42:00,33.0,27.0,30.35,ENE,69,0.0,3.0,79,0.00,,,0.09,,2013-02-27 03:42:00,
2013-02-26 22:52:00,33.0,27.0,30.34,East,98,0.0,3.0,79,0.00,,,0.09,,2013-02-27 03:52:00,
2013-02-26 23:02:00,33.0,27.0,30.32,NE,48,1.0,4.0,79,0.00,,,0.09,,2013-02-27 04:02:00,
2013-02-26 23:11:00,33.0,27.0,30.32,NE,48,1.0,4.0,79,0.00,,,0.09,,2013-02-27 04:11:00,
2013-02-26 23:22:00,33.0,27.0,30.31,NE,53,1.0,4.0,79,0.00,,,0.09,,2013-02-27 04:22:00,
2013-02-26 23:32:00,33.0,27.0,30.32,ENE,65,0.0,3.0,79,0.00,,,0.09,,2013-02-27 04:32:00,
2013-02-26 23:42:00,33.0,27.0,30.32,ENE,65,0.0,3.0,79,0.00,,,0.09,,2013-02-27 04:42:00,
2013-02-26 23:52:00,33.0,27.0,30.31,ENE,68,2.0,9.0,79,0.00,,,0.09,,2013-02-27 04:52:00,